Time,TemperatureF,DewpointF,PressureIn,WindDirection,WindDirectionDegrees,WindSpeedMPH,WindSpeedGustMPH,Humidity,HourlyPrecipIn,Conditions,Clouds,dailyrainin,SoftwareType,DateUTC
2013-03-04 00:00:00,37.2,15.6,29.97,North,0,0.0,0.0,41,0.00,CLR,FEW,0.00,WeatherDisplay:10.37,2013-03-04 05:00:00,
2013-03-04 00:03:00,37.0,16.0,29.97,North,0,0.0,0.0,42,0.00,CLR,FEW,0.00,WeatherDisplay:10.37,2013-03-04 05:03:00,
2013-03-04 00:08:00,37.0,16.0,29.97,North,0,0.0,0.0,42,0.00,CLR,FEW,0.00,WeatherDisplay:10.37,2013-03-04 05:08:00,
2013-03-04 00:11:00,37.0,15.5,29.97,North,0,0.0,0.0,41,0.00,CLR,FEW,0.00,WeatherDisplay:10.37,2013-03-04 05:11:00,
2013-03-04 00:16:00,37.0,15.5,29.97,North,0,0.0,0.0,41,0.00,CLR,FEW,0.00,WeatherDisplay:10.37,2013-03-04 05:16:00,
2013-03-04 00:21:00,37.0,15.5,29.97,North,0,0.0,0.0,41,0.00,CLR,FEW,0.00,WeatherDisplay:10.37,2013-03-04 05:21:00,
2013-03-04 00:26:00,37.0,15.5,29.97,North,0,0.0,0.0,41,0.00,CLR,FEW,0.00,WeatherDisplay:10.37,2013-03-04 05:26:00,
2013-03-04 00:31:00,37.0,15.5,29.97,North,0,0.0,0.0,41,0.00,CLR,FEW,0.00,WeatherDisplay:10.37,2013-03-04 05:31:00,
2013-03-04 00:36:00,36.9,15.9,29.97,North,0,0.0,0.0,42,0.00,CLR,FEW,0.00,WeatherDisplay:10.37,2013-03-04 05:36:00,
2013-03-04 00:41:00,36.7,15.7,29.97,North,0,0.0,0.0,42,0.00,CLR,FEW,0.00,WeatherDisplay:10.37,2013-03-04 05:41:00,
2013-03-04 00:46:00,36.7,16.3,29.97,North,0,0.0,0.0,43,0.00,CLR,FEW,0.00,WeatherDisplay:10.37,2013-03-04 05:46:00,
2013-03-04 00:51:00,36.5,16.1,29.97,North,0,0.0,0.0,43,0.00,CLR,FEW,0.00,WeatherDisplay:10.37,2013-03-04 05:51:00,
2013-03-04 00:56:00,36.3,15.9,29.97,North,0,0.0,0.0,43,0.00,CLR,FEW,0.00,WeatherDisplay:10.37,2013-03-04 05:56:00,
2013-03-04 01:01:00,36.0,15.6,30.00,North,0,0.0,0.0,43,0.00,CLR,FEW,0.00,WeatherDisplay:10.37,2013-03-04 06:01:00,
2013-03-04 01:06:00,35.8,16.0,30.00,North,0,0.0,0.0,44,0.00,CLR,FEW,0.00,WeatherDisplay:10.37,2013-03-04 06:06:00,
2013-03-04 01:11:00,35.6,16.3,30.00,North,0,0.0,0.0,45,0.00,CLR,FEW,0.00,WeatherDisplay:10.37,2013-03-04 06:11:00,
2013-03-04 01:16:00,35.4,16.7,29.97,North,0,0.0,0.0,46,0.00,CLR,FEW,0.00,WeatherDisplay:10.37,2013-03-04 06:16:00,
2013-03-04 01:21:00,35.2,16.5,29.97,North,0,0.0,0.0,46,0.00,CLR,FEW,0.00,WeatherDisplay:10.37,2013-03-04 06:21:00,
2013-03-04 01:26:00,35.1,16.8,29.97,North,0,0.0,0.0,47,0.00,CLR,FEW,0.00,WeatherDisplay:10.37,2013-03-04 06:26:00,
2013-03-04 01:31:00,34.9,16.7,29.97,North,0,0.0,0.0,47,0.00,CLR,FEW,0.00,WeatherDisplay:10.37,2013-03-04 06:31:00,
2013-03-04 01:36:00,34.7,17.0,29.97,North,0,0.0,0.0,48,0.00,CLR,FEW,0.00,WeatherDisplay:10.37,2013-03-04 06:36:00,
2013-03-04 01:41:00,34.5,17.3,29.97,North,0,0.0,0.0,49,0.00,CLR,FEW,0.00,WeatherDisplay:10.37,2013-03-04 06:41:00,
2013-03-04 01:46:00,34.3,17.6,29.97,North,0,0.0,0.0,50,0.00,CLR,FEW,0.00,WeatherDisplay:10.37,2013-03-04 06:46:00,
2013-03-04 01:51:00,34.2,17.4,29.97,North,0,0.0,0.0,50,0.00,CLR,FEW,0.00,WeatherDisplay:10.37,2013-03-04 06:51:00,
2013-03-04 01:52:00,34.2,17.4,29.97,North,0,0.0,0.0,50,0.00,CLR,FEW,0.00,WeatherDisplay:10.37,2013-03-04 06:52:00,
2013-03-04 01:57:00,34.0,17.3,29.97,North,0,0.0,0.0,50,0.00,CLR,FEW,0.00,WeatherDisplay:10.37,2013-03-04 06:57:00,
2013-03-04 02:02:00,33.8,17.6,30.00,North,0,0.0,0.0,51,0.00,CLR,FEW,0.00,WeatherDisplay:10.37,2013-03-04 07:02:00,
2013-03-04 02:07:00,33.8,17.6,30.00,North,0,0.0,0.0,51,0.00,CLR,FEW,0.00,WeatherDisplay:10.37,2013-03-04 07:07:00,
2013-03-04 02:12:00,34.0,17.7,30.00,North,0,0.0,0.0,51,0.00,CLR,FEW,0.00,WeatherDisplay:10.37,2013-03-04 07:12:00,
2013-03-04 02:17:00,34.2,17.0,30.00,North,0,0.0,0.0,49,0.00,CLR,FEW,0.00,WeatherDisplay:10.37,2013-03-04 07:17:00,
2013-03-04 02:22:00,34.3,16.2,30.00,North,0,0.0,0.0,47,0.00,CLR,FEW,0.00,WeatherDisplay:10.37,2013-03-04 07:22:00,
2013-03-04 02:27:00,34.3,16.2,30.00,North,0,0.0,0.0,47,0.00,CLR,FEW,0.00,WeatherDisplay:10.37,2013-03-04 07:27:00,
2013-03-04 02:32:00,34.3,16.7,30.00,North,0,0.0,0.0,48,0.00,CLR,FEW,0.00,WeatherDisplay:10.37,2013-03-04 07:32:00,
2013-03-04 02:37:00,34.3,17.1,30.00,North,0,0.0,0.0,49,0.00,CLR,FEW,0.00,WeatherDisplay:10.37,2013-03-04 07:37:00,
2013-03-04 02:42:00,34.2,16.0,30.00,North,0,0.0,0.0,47,0.00,CLR,FEW,0.00,WeatherDisplay:10.37,2013-03-04 07:42:00,
2013-03-04 02:47:00,34.3,14.7,30.00,North,0,0.0,0.0,44,0.00,CLR,FEW,0.00,WeatherDisplay:10.37,2013-03-04 07:47:00,
2013-03-04 02:53:00,34.5,14.3,30.00,North,0,0.0,0.0,43,0.00,CLR,FEW,0.00,WeatherDisplay:10.37,2013-03-04 07:53:00,
2013-03-04 02:58:00,34.3,13.6,30.00,North,0,0.0,0.0,42,0.00,CLR,FEW,0.00,WeatherDisplay:10.37,2013-03-04 07:58:00,
2013-03-04 03:03:00,34.3,13.6,30.00,North,0,0.0,0.0,42,0.00,CLR,FEW,0.00,WeatherDisplay:10.37,2013-03-04 08:03:00,
2013-03-04 03:09:00,34.3,13.0,30.00,North,0,0.0,0.0,41,0.00,CLR,FEW,0.00,WeatherDisplay:10.37,2013-03-04 08:09:00,
2013-03-04 03:14:00,34.2,12.9,30.00,North,0,0.0,0.0,41,0.00,CLR,FEW,0.00,WeatherDisplay:10.37,2013-03-04 08:14:00,
2013-03-04 03:19:00,34.0,12.7,30.00,North,0,0.0,0.0,41,0.00,CLR,FEW,0.00,WeatherDisplay:10.37,2013-03-04 08:19:00,
2013-03-04 03:24:00,34.0,13.3,30.00,North,0,0.0,0.0,42,0.00,CLR,FEW,0.00,WeatherDisplay:10.37,2013-03-04 08:24:00,
2013-03-04 03:29:00,34.2,12.9,30.00,North,0,0.0,0.0,41,0.00,CLR,FEW,0.00,WeatherDisplay:10.37,2013-03-04 08:29:00,
2013-03-04 03:34:00,34.2,12.9,30.00,North,0,0.0,0.0,41,0.00,CLR,FEW,0.00,WeatherDisplay:10.37,2013-03-04 08:34:00,
2013-03-04 03:40:00,34.0,12.7,30.00,North,0,0.0,0.0,41,0.00,CLR,FEW,0.00,WeatherDisplay:10.37,2013-03-04 08:40:00,
2013-03-04 03:45:00,33.8,13.1,30.00,North,0,0.0,0.0,42,0.00,CLR,FEW,0.00,WeatherDisplay:10.37,2013-03-04 08:45:00,
2013-03-04 03:50:00,33.8,13.1,30.00,North,0,0.0,0.0,42,0.00,CLR,FEW,0.00,WeatherDisplay:10.37,2013-03-04 08:50:00,
2013-03-04 03:56:00,33.6,12.9,30.00,North,0,0.0,0.0,42,0.00,CLR,FEW,0.00,WeatherDisplay:10.37,2013-03-04 08:56:00,
2013-03-04 04:01:00,33.6,12.4,30.03,North,0,0.0,0.0,41,0.00,CLR,FEW,0.00,WeatherDisplay:10.37,2013-03-04 09:01:00,
2013-03-04 04:06:00,33.6,12.4,30.03,North,0,0.0,0.0,41,0.00,CLR,FEW,0.00,WeatherDisplay:10.37,2013-03-04 09:06:00,
2013-03-04 04:11:00,33.6,11.8,30.03,North,0,0.0,0.0,40,0.00,CLR,FEW,0.00,WeatherDisplay:10.37,2013-03-04 09:11:00,
2013-03-04 04:17:00,33.6,11.3,30.03,North,0,0.0,0.0,39,0.00,CLR,FEW,0.00,WeatherDisplay:10.37,2013-03-04 09:17:00,
2013-03-04 04:22:00,33.8,10.8,30.03,North,0,0.0,0.0,38,0.00,CLR,FEW,0.00,WeatherDisplay:10.37,2013-03-04 09:22:00,
2013-03-04 04:27:00,33.6,10.7,30.03,North,0,0.0,0.0,38,0.00,CLR,FEW,0.00,WeatherDisplay:10.37,2013-03-04 09:27:00,
2013-03-04 04:32:00,33.6,11.3,30.03,North,0,0.0,0.0,39,0.00,CLR,FEW,0.00,WeatherDisplay:10.37,2013-03-04 09:32:00,
2013-03-04 04:37:00,33.3,11.5,30.03,North,0,0.0,0.0,40,0.00,CLR,FEW,0.00,WeatherDisplay:10.37,2013-03-04 09:37:00,
2013-03-04 04:42:00,33.1,11.3,30.03,North,0,0.0,0.0,40,0.00,CLR,FEW,0.00,WeatherDisplay:10.37,2013-03-04 09:42:00,
2013-03-04 04:47:00,32.9,11.2,30.03,North,0,0.0,0.0,40,0.00,CLR,FEW,0.00,WeatherDisplay:10.37,2013-03-04 09:47:00,
2013-03-04 04:52:00,32.9,11.2,30.03,North,0,0.0,0.0,40,0.00,CLR,FEW,0.00,WeatherDisplay:10.37,2013-03-04 09:52:00,
2013-03-04 04:58:00,32.5,10.9,30.06,North,0,0.0,0.0,40,0.00,CLR,FEW,0.00,WeatherDisplay:10.37,2013-03-04 09:58:00,
2013-03-04 05:03:00,32.4,10.7,30.06,North,0,0.0,0.0,40,0.00,CLR,FEW,0.00,WeatherDisplay:10.37,2013-03-04 10:03:00,
2013-03-04 05:08:00,32.2,11.1,30.06,North,0,0.0,0.0,41,0.00,CLR,FEW,0.00,WeatherDisplay:10.37,2013-03-04 10:08:00,
2013-03-04 05:13:00,32.0,10.9,30.06,North,0,0.0,0.0,41,0.00,CLR,FEW,0.00,WeatherDisplay:10.37,2013-03-04 10:13:00,
2013-03-04 05:18:00,32.0,10.9,30.06,North,0,0.0,0.0,41,0.00,CLR,FEW,0.00,WeatherDisplay:10.37,2013-03-04 10:18:00,
2013-03-04 05:23:00,32.0,10.9,30.06,North,0,0.0,0.0,41,0.00,CLR,FEW,0.00,WeatherDisplay:10.37,2013-03-04 10:23:00,
2013-03-04 05:28:00,32.0,10.9,30.06,North,0,0.0,0.0,41,0.00,CLR,FEW,0.00,WeatherDisplay:10.37,2013-03-04 10:28:00,
2013-03-04 05:33:00,31.8,10.8,30.06,North,0,0.0,0.0,41,0.00,CLR,FEW,0.00,WeatherDisplay:10.37,2013-03-04 10:33:00,
2013-03-04 05:38:00,31.6,10.0,30.06,North,0,0.0,0.0,40,0.00,CLR,FEW,0.00,WeatherDisplay:10.37,2013-03-04 10:38:00,
2013-03-04 05:43:00,31.6,10.0,30.09,North,0,0.0,0.0,40,0.00,CLR,FEW,0.00,WeatherDisplay:10.37,2013-03-04 10:43:00,
2013-03-04 05:49:00,31.8,10.2,30.09,North,0,0.0,0.0,40,0.00,CLR,FEW,0.00,WeatherDisplay:10.37,2013-03-04 10:49:00,
2013-03-04 05:54:00,31.8,10.2,30.09,North,0,0.0,0.0,40,0.00,CLR,FEW,0.00,WeatherDisplay:10.37,2013-03-04 10:54:00,
2013-03-04 05:59:00,31.8,10.2,30.09,North,0,0.0,0.0,40,0.00,CLR,FEW,0.00,WeatherDisplay:10.37,2013-03-04 10:59:00,
2013-03-04 06:04:00,31.6,10.0,30.09,North,0,0.0,0.0,40,0.00,CLR,FEW,0.00,WeatherDisplay:10.37,2013-03-04 11:04:00,
2013-03-04 06:09:00,31.5,9.3,30.09,North,0,0.0,0.0,39,0.00,CLR,FEW,0.00,WeatherDisplay:10.37,2013-03-04 11:09:00,
2013-03-04 06:14:00,31.5,9.3,30.09,North,0,0.0,0.0,39,0.00,CLR,FEW,0.00,WeatherDisplay:10.37,2013-03-04 11:14:00,
2013-03-04 06:19:00,31.5,9.3,30.09,North,0,0.0,0.0,39,0.00,CLR,FEW,0.00,WeatherDisplay:10.37,2013-03-04 11:19:00,
2013-03-04 06:24:00,31.5,9.3,30.09,North,0,0.0,0.0,39,0.00,CLR,FEW,0.00,WeatherDisplay:10.37,2013-03-04 11:24:00,
2013-03-04 06:29:00,31.3,9.2,30.09,North,0,0.0,0.0,39,0.00,CLR,FEW,0.00,WeatherDisplay:10.37,2013-03-04 11:29:00,
2013-03-04 06:34:00,31.3,9.2,30.09,North,0,0.0,0.0,39,0.00,CLR,FEW,0.00,WeatherDisplay:10.37,2013-03-04 11:34:00,
2013-03-04 06:39:00,31.1,9.0,30.09,North,0,0.0,0.0,39,0.00,CLR,FEW,0.00,WeatherDisplay:10.37,2013-03-04 11:39:00,
2013-03-04 06:44:00,31.1,9.6,30.09,North,0,0.0,0.0,40,0.00,CLR,FEW,0.00,WeatherDisplay:10.37,2013-03-04 11:44:00,
2013-03-04 06:49:00,30.9,9.4,30.09,North,0,0.0,0.0,40,0.00,CLR,FEW,0.00,WeatherDisplay:10.37,2013-03-04 11:49:00,
2013-03-04 06:54:00,30.7,9.2,30.09,North,0,0.0,0.0,40,0.00,CLR,FEW,0.00,WeatherDisplay:10.37,2013-03-04 11:54:00,
2013-03-04 06:59:00,30.7,9.2,30.09,North,0,0.0,0.0,40,0.00,CLR,FEW,0.00,WeatherDisplay:10.37,2013-03-04 11:59:00,
2013-03-04 07:04:00,30.7,9.2,30.09,North,0,0.0,0.0,40,0.00,CLR,FEW,0.00,WeatherDisplay:10.37,2013-03-04 12:04:00,
2013-03-04 07:09:00,30.9,9.4,30.09,North,0,0.0,0.0,40,0.00,CLR,FEW,0.00,WeatherDisplay:10.37,2013-03-04 12:09:00,
2013-03-04 07:14:00,31.3,9.7,30.09,North,0,0.0,0.0,40,0.00,CLR,FEW,0.00,WeatherDisplay:10.37,2013-03-04 12:14:00,
2013-03-04 07:19:00,31.8,10.2,30.09,North,0,0.0,0.0,40,0.00,CLR,FEW,0.00,WeatherDisplay:10.37,2013-03-04 12:19:00,
2013-03-04 07:24:00,32.4,10.1,30.09,North,0,0.0,0.0,39,0.00,CLR,FEW,0.00,WeatherDisplay:10.37,2013-03-04 12:24:00,
2013-03-04 07:29:00,32.7,9.9,30.12,North,0,0.0,0.0,38,0.00,CLR,FEW,0.00,WeatherDisplay:10.37,2013-03-04 12:29:00,
2013-03-04 07:34:00,33.3,9.8,30.12,North,0,0.0,0.0,37,0.00,CLR,FEW,0.00,WeatherDisplay:10.37,2013-03-04 12:34:00,
2013-03-04 07:39:00,34.0,9.2,30.12,North,0,0.0,0.0,35,0.00,CLR,FEW,0.00,WeatherDisplay:10.37,2013-03-04 12:39:00,
2013-03-04 07:44:00,34.3,8.8,30.12,North,0,0.0,0.0,34,0.00,CLR,FEW,0.00,WeatherDisplay:10.37,2013-03-04 12:44:00,
2013-03-04 07:49:00,34.9,9.3,30.12,North,0,0.0,0.0,34,0.00,CLR,FEW,0.00,WeatherDisplay:10.37,2013-03-04 12:49:00,
2013-03-04 07:54:00,35.6,9.3,30.12,North,0,0.0,0.0,33,0.00,CLR,FEW,0.00,WeatherDisplay:10.37,2013-03-04 12:54:00,
2013-03-04 07:59:00,36.0,8.9,30.12,North,0,0.0,0.0,32,0.00,CLR,FEW,0.00,WeatherDisplay:10.37,2013-03-04 12:59:00,
2013-03-04 08:04:00,36.3,8.5,30.12,North,0,0.0,0.0,31,0.00,CLR,FEW,0.00,WeatherDisplay:10.37,2013-03-04 13:04:00,
2013-03-04 08:09:00,36.7,8.8,30.12,North,0,0.0,0.0,31,0.00,CLR,FEW,0.00,WeatherDisplay:10.37,2013-03-04 13:09:00,
2013-03-04 08:14:00,36.9,9.0,30.12,North,0,0.0,0.0,31,0.00,CLR,FEW,0.00,WeatherDisplay:10.37,2013-03-04 13:14:00,
2013-03-04 08:19:00,37.2,9.3,30.12,North,0,0.0,0.0,31,0.00,CLR,FEW,0.00,WeatherDisplay:10.37,2013-03-04 13:19:00,
2013-03-04 08:24:00,37.6,8.9,30.12,North,0,0.0,0.0,30,0.00,CLR,FEW,0.00,WeatherDisplay:10.37,2013-03-04 13:24:00,
2013-03-04 08:29:00,38.1,8.6,30.12,North,0,0.0,0.0,29,0.00,CLR,FEW,0.00,WeatherDisplay:10.37,2013-03-04 13:29:00,
2013-03-04 08:34:00,38.5,9.7,30.12,North,0,0.0,0.0,30,0.00,CLR,FEW,0.00,WeatherDisplay:10.37,2013-03-04 13:34:00,
2013-03-04 08:39:00,38.7,9.1,30.12,North,0,0.0,0.0,29,0.00,CLR,FEW,0.00,WeatherDisplay:10.37,2013-03-04 13:39:00,
2013-03-04 08:44:00,38.8,9.2,30.12,North,0,0.0,0.0,29,0.00,CLR,FEW,0.00,WeatherDisplay:10.37,2013-03-04 13:44:00,
2013-03-04 08:49:00,38.8,9.2,30.12,North,0,0.0,0.0,29,0.00,CLR,FEW,0.00,WeatherDisplay:10.37,2013-03-04 13:49:00,
2013-03-04 08:54:00,39.2,9.6,30.12,North,0,0.0,0.0,29,0.00,CLR,FEW,0.00,WeatherDisplay:10.37,2013-03-04 13:54:00,
2013-03-04 08:59:00,39.0,9.4,30.12,North,0,0.0,0.0,29,0.00,CLR,FEW,0.00,WeatherDisplay:10.37,2013-03-04 13:59:00,
2013-03-04 09:04:00,39.4,9.7,30.12,North,0,0.0,0.0,29,0.00,CLR,FEW,0.00,WeatherDisplay:10.37,2013-03-04 14:04:00,
2013-03-04 09:09:00,40.1,10.3,30.12,North,0,0.0,0.0,29,0.00,CLR,FEW,0.00,WeatherDisplay:10.37,2013-03-04 14:09:00,
2013-03-04 09:14:00,40.5,9.9,30.12,North,0,0.0,0.0,28,0.00,CLR,FEW,0.00,WeatherDisplay:10.37,2013-03-04 14:14:00,
2013-03-04 09:19:00,40.5,9.9,30.12,North,0,0.0,0.0,28,0.00,CLR,FEW,0.00,WeatherDisplay:10.37,2013-03-04 14:19:00,
2013-03-04 09:24:00,40.6,10.0,30.12,North,0,0.0,0.0,28,0.00,CLR,FEW,0.00,WeatherDisplay:10.37,2013-03-04 14:24:00,
2013-03-04 09:30:00,41.2,10.5,30.12,North,0,0.0,0.0,28,0.00,CLR,FEW,0.00,WeatherDisplay:10.37,2013-03-04 14:30:00,
2013-03-04 09:35:00,41.5,10.8,30.12,North,0,0.0,0.0,28,0.00,CLR,FEW,0.00,WeatherDisplay:10.37,2013-03-04 14:35:00,
2013-03-04 09:40:00,41.7,9.3,30.12,North,0,0.0,0.0,26,0.00,CLR,FEW,0.00,WeatherDisplay:10.37,2013-03-04 14:40:00,
2013-03-04 09:45:00,41.9,9.5,30.12,North,0,0.0,0.0,26,0.00,CLR,FEW,0.00,WeatherDisplay:10.37,2013-03-04 14:45:00,
2013-03-04 09:50:00,42.4,11.6,30.12,North,0,0.0,0.0,28,0.00,CLR,FEW,0.00,WeatherDisplay:10.37,2013-03-04 14:50:00,
2013-03-04 09:55:00,42.8,9.3,30.12,North,0,0.0,0.0,25,0.00,CLR,FEW,0.00,WeatherDisplay:10.37,2013-03-04 14:55:00,
2013-03-04 10:00:00,43.0,9.5,30.12,North,0,0.0,0.0,25,0.00,CLR,FEW,0.00,WeatherDisplay:10.37,2013-03-04 15:00:00,
2013-03-04 10:05:00,42.8,9.3,30.12,North,0,0.0,0.0,25,0.00,CLR,FEW,0.00,WeatherDisplay:10.37,2013-03-04 15:05:00,
2013-03-04 10:10:00,42.8,9.3,30.12,North,0,0.0,0.0,25,0.00,CLR,FEW,0.00,WeatherDisplay:10.37,2013-03-04 15:10:00,
2013-03-04 10:15:00,43.0,9.5,30.12,North,0,0.0,0.0,25,0.00,CLR,FEW,0.00,WeatherDisplay:10.37,2013-03-04 15:15:00,
2013-03-04 10:20:00,43.5,8.1,30.12,North,0,0.0,0.0,23,0.00,CLR,FEW,0.00,WeatherDisplay:10.37,2013-03-04 15:20:00,
2013-03-04 10:25:00,43.7,8.3,30.12,North,0,0.0,0.0,23,0.00,CLR,FEW,0.00,WeatherDisplay:10.37,2013-03-04 15:25:00,
2013-03-04 10:30:00,43.9,8.4,30.12,North,0,0.0,0.0,23,0.00,CLR,FEW,0.00,WeatherDisplay:10.37,2013-03-04 15:30:00,
2013-03-04 10:35:00,44.4,8.9,30.12,North,0,0.0,0.0,23,0.00,CLR,FEW,0.00,WeatherDisplay:10.37,2013-03-04 15:35:00,
2013-03-04 10:40:00,45.0,8.3,30.12,North,0,0.0,0.0,22,0.00,CLR,FEW,0.00,WeatherDisplay:10.37,2013-03-04 15:40:00,
2013-03-04 10:45:00,45.1,8.5,30.12,North,0,0.0,0.0,22,0.00,CLR,FEW,0.00,WeatherDisplay:10.37,2013-03-04 15:45:00,
2013-03-04 10:50:00,45.0,8.3,30.12,North,0,0.0,0.0,22,0.00,CLR,FEW,0.00,WeatherDisplay:10.37,2013-03-04 15:50:00,
2013-03-04 10:55:00,45.1,8.5,30.12,North,0,0.0,0.0,22,0.00,CLR,FEW,0.00,WeatherDisplay:10.37,2013-03-04 15:55:00,
2013-03-04 11:00:00,45.3,8.6,30.12,North,0,0.0,0.0,22,0.00,CLR,FEW,0.00,WeatherDisplay:10.37,2013-03-04 16:00:00,
2013-03-04 11:05:00,45.5,8.8,30.12,North,0,0.0,0.0,22,0.00,CLR,FEW,0.00,WeatherDisplay:10.37,2013-03-04 16:05:00,
2013-03-04 11:10:00,46.0,9.2,30.12,North,0,0.0,0.0,22,0.00,CLR,FEW,0.00,WeatherDisplay:10.37,2013-03-04 16:10:00,
2013-03-04 11:15:00,46.2,9.4,30.12,North,0,0.0,0.0,22,0.00,CLR,FEW,0.00,WeatherDisplay:10.37,2013-03-04 16:15:00,
2013-03-04 11:20:00,46.4,9.6,30.12,North,0,0.0,0.0,22,0.00,CLR,FEW,0.00,WeatherDisplay:10.37,2013-03-04 16:20:00,
2013-03-04 11:25:00,46.6,9.7,30.12,North,0,0.0,0.0,22,0.00,CLR,FEW,0.00,WeatherDisplay:10.37,2013-03-04 16:25:00,
2013-03-04 11:30:00,46.9,10.0,30.12,North,0,0.0,0.0,22,0.00,CLR,FEW,0.00,WeatherDisplay:10.37,2013-03-04 16:30:00,
2013-03-04 11:35:00,47.3,7.0,30.12,North,0,0.0,0.0,19,0.00,CLR,FEW,0.00,WeatherDisplay:10.37,2013-03-04 16:35:00,
2013-03-04 11:40:00,47.3,10.3,30.12,North,0,0.0,0.0,22,0.00,CLR,FEW,0.00,WeatherDisplay:10.37,2013-03-04 16:40:00,
2013-03-04 11:45:00,48.0,10.9,30.12,North,0,0.0,0.0,22,0.00,CLR,FEW,0.00,WeatherDisplay:10.37,2013-03-04 16:45:00,
2013-03-04 11:50:00,48.4,10.2,30.12,North,0,0.0,0.0,21,0.00,CLR,FEW,0.00,WeatherDisplay:10.37,2013-03-04 16:50:00,
2013-03-04 11:55:00,48.7,8.2,30.12,North,0,0.0,0.0,19,0.00,CLR,FEW,0.00,WeatherDisplay:10.37,2013-03-04 16:55:00,
2013-03-04 12:00:00,48.9,8.4,30.09,North,0,0.0,0.0,19,0.00,CLR,FEW,0.00,WeatherDisplay:10.37,2013-03-04 17:00:00,
2013-03-04 12:05:00,48.9,8.4,30.09,North,0,0.0,0.0,19,0.00,CLR,FEW,0.00,WeatherDisplay:10.37,2013-03-04 17:05:00,
2013-03-04 12:10:00,49.3,8.7,30.09,North,0,0.0,0.0,19,0.00,CLR,FEW,0.00,WeatherDisplay:10.37,2013-03-04 17:10:00,
2013-03-04 12:15:00,49.1,8.5,30.09,North,0,0.0,0.0,19,0.00,CLR,FEW,0.00,WeatherDisplay:10.37,2013-03-04 17:15:00,
2013-03-04 12:20:00,49.1,8.5,30.09,North,0,0.0,0.0,19,0.00,CLR,FEW,0.00,WeatherDisplay:10.37,2013-03-04 17:20:00,
2013-03-04 12:25:00,49.1,8.5,30.09,North,0,0.0,0.0,19,0.00,CLR,FEW,0.00,WeatherDisplay:10.37,2013-03-04 17:25:00,
2013-03-04 12:30:00,49.1,8.5,30.09,North,0,0.0,0.0,19,0.00,CLR,FEW,0.00,WeatherDisplay:10.37,2013-03-04 17:30:00,
2013-03-04 12:35:00,49.5,8.8,30.09,North,0,0.0,0.0,19,0.00,CLR,FEW,0.00,WeatherDisplay:10.37,2013-03-04 17:35:00,
2013-03-04 12:40:00,50.0,9.3,30.09,North,0,0.0,0.0,19,0.00,CLR,FEW,0.00,WeatherDisplay:10.37,2013-03-04 17:40:00,
2013-03-04 12:45:00,50.4,9.6,30.09,North,0,0.0,0.0,19,0.00,CLR,FEW,0.00,WeatherDisplay:10.37,2013-03-04 17:45:00,
2013-03-04 12:50:00,50.5,9.7,30.09,North,0,0.0,0.0,19,0.00,CLR,FEW,0.00,WeatherDisplay:10.37,2013-03-04 17:50:00,
2013-03-04 12:55:00,51.1,10.2,30.09,North,0,0.0,0.0,19,0.00,CLR,FEW,0.00,WeatherDisplay:10.37,2013-03-04 17:55:00,
2013-03-04 13:00:00,50.9,10.0,30.09,North,0,0.0,0.0,19,0.00,CLR,FEW,0.00,WeatherDisplay:10.37,2013-03-04 18:00:00,
2013-03-04 13:05:00,50.7,9.9,30.09,North,0,0.0,0.0,19,0.00,CLR,FEW,0.00,WeatherDisplay:10.37,2013-03-04 18:05:00,
2013-03-04 13:10:00,51.1,10.2,30.09,North,0,0.0,0.0,19,0.00,CLR,FEW,0.00,WeatherDisplay:10.37,2013-03-04 18:10:00,
2013-03-04 13:15:00,50.7,9.9,30.06,North,0,0.0,0.0,19,0.00,CLR,FEW,0.00,WeatherDisplay:10.37,2013-03-04 18:15:00,
2013-03-04 13:20:00,50.7,9.9,30.06,North,0,0.0,0.0,19,0.00,CLR,FEW,0.00,WeatherDisplay:10.37,2013-03-04 18:20:00,
2013-03-04 13:25:00,51.1,10.2,30.06,North,0,0.0,0.0,19,0.00,CLR,FEW,0.00,WeatherDisplay:10.37,2013-03-04 18:25:00,
2013-03-04 13:29:00,51.3,10.3,30.06,North,0,0.0,0.0,19,0.00,CLR,FEW,0.00,WeatherDisplay:10.37,2013-03-04 18:29:00,
2013-03-04 13:30:00,51.3,10.3,30.06,North,0,0.0,0.0,19,0.00,CLR,FEW,0.00,WeatherDisplay:10.37,2013-03-04 18:30:00,
2013-03-04 13:35:00,51.4,10.5,30.06,North,0,0.0,0.0,19,0.00,CLR,FEW,0.00,WeatherDisplay:10.37,2013-03-04 18:35:00,
2013-03-04 13:40:00,51.3,10.3,30.06,North,0,0.0,0.0,19,0.00,CLR,FEW,0.00,WeatherDisplay:10.37,2013-03-04 18:40:00,
2013-03-04 13:45:00,51.6,10.6,30.06,North,0,0.0,0.0,19,0.00,CLR,FEW,0.00,WeatherDisplay:10.37,2013-03-04 18:45:00,
2013-03-04 13:50:00,52.2,9.9,30.06,North,0,0.0,0.0,18,0.00,CLR,FEW,0.00,WeatherDisplay:10.37,2013-03-04 18:50:00,
2013-03-04 13:55:00,52.0,9.7,30.06,North,0,0.0,0.0,18,0.00,CLR,FEW,0.00,WeatherDisplay:10.37,2013-03-04 18:55:00,
2013-03-04 14:00:00,51.8,9.6,30.06,North,0,0.0,0.0,18,0.00,CLR,FEW,0.00,WeatherDisplay:10.37,2013-03-04 19:00:00,
2013-03-04 14:03:00,52.0,9.7,30.06,North,0,0.0,0.0,18,0.00,CLR,FEW,0.00,WeatherDisplay:10.37,2013-03-04 19:03:00,
2013-03-04 14:09:00,52.3,10.0,30.06,North,0,0.0,0.0,18,0.00,CLR,FEW,0.00,WeatherDisplay:10.37,2013-03-04 19:09:00,
2013-03-04 14:14:00,52.7,10.3,30.06,North,0,0.0,0.0,18,0.00,CLR,FEW,0.00,WeatherDisplay:10.37,2013-03-04 19:14:00,
2013-03-04 14:19:00,53.1,10.6,30.06,North,0,0.0,0.0,18,0.00,CLR,FEW,0.00,WeatherDisplay:10.37,2013-03-04 19:19:00,
2013-03-04 14:24:00,53.4,10.9,30.06,North,0,0.0,0.0,18,0.00,CLR,FEW,0.00,WeatherDisplay:10.37,2013-03-04 19:24:00,
2013-03-04 14:29:00,53.1,10.6,30.03,North,0,0.0,0.0,18,0.00,CLR,FEW,0.00,WeatherDisplay:10.37,2013-03-04 19:29:00,
2013-03-04 14:34:00,53.2,10.8,30.03,North,0,0.0,0.0,18,0.00,CLR,FEW,0.00,WeatherDisplay:10.37,2013-03-04 19:34:00,
2013-03-04 14:39:00,53.2,10.8,30.03,North,0,0.0,0.0,18,0.00,CLR,FEW,0.00,WeatherDisplay:10.37,2013-03-04 19:39:00,
2013-03-04 14:44:00,53.6,11.0,30.03,North,0,0.0,0.0,18,0.00,CLR,FEW,0.00,WeatherDisplay:10.37,2013-03-04 19:44:00,
2013-03-04 14:49:00,53.4,10.9,30.03,North,0,0.0,0.0,18,0.00,CLR,FEW,0.00,WeatherDisplay:10.37,2013-03-04 19:49:00,
2013-03-04 14:54:00,53.4,10.9,30.03,North,0,0.0,0.0,18,0.00,CLR,FEW,0.00,WeatherDisplay:10.37,2013-03-04 19:54:00,
2013-03-04 14:59:00,54.0,11.3,30.03,North,0,0.0,0.0,18,0.00,CLR,FEW,0.00,WeatherDisplay:10.37,2013-03-04 19:59:00,
2013-03-04 15:04:00,54.0,11.3,30.03,North,0,0.0,0.0,18,0.00,CLR,FEW,0.00,WeatherDisplay:10.37,2013-03-04 20:04:00,
2013-03-04 15:09:00,54.1,11.5,30.03,North,0,0.0,0.0,18,0.00,CLR,FEW,0.00,WeatherDisplay:10.37,2013-03-04 20:09:00,
2013-03-04 15:14:00,54.7,11.9,30.03,North,0,0.0,0.0,18,0.00,CLR,FEW,0.00,WeatherDisplay:10.37,2013-03-04 20:14:00,
2013-03-04 15:19:00,54.9,12.1,30.03,North,0,0.0,0.0,18,0.00,CLR,FEW,0.00,WeatherDisplay:10.37,2013-03-04 20:19:00,
2013-03-04 15:24:00,54.7,11.9,30.03,North,0,0.0,0.0,18,0.00,CLR,FEW,0.00,WeatherDisplay:10.37,2013-03-04 20:24:00,
2013-03-04 15:29:00,54.5,11.8,30.03,North,0,0.0,0.0,18,0.00,CLR,FEW,0.00,WeatherDisplay:10.37,2013-03-04 20:29:00,
2013-03-04 15:34:00,54.3,11.6,30.03,North,0,0.0,0.0,18,0.00,CLR,FEW,0.00,WeatherDisplay:10.37,2013-03-04 20:34:00,
2013-03-04 15:39:00,53.8,11.2,30.03,North,0,0.0,0.0,18,0.00,CLR,FEW,0.00,WeatherDisplay:10.37,2013-03-04 20:39:00,
2013-03-04 15:41:00,53.6,11.0,30.03,North,0,0.0,0.0,18,0.00,CLR,FEW,0.00,WeatherDisplay:10.37,2013-03-04 20:41:00,
2013-03-04 15:46:00,53.4,10.9,30.06,North,0,0.0,0.0,18,0.00,CLR,FEW,0.00,WeatherDisplay:10.37,2013-03-04 20:46:00,
2013-03-04 15:51:00,53.2,10.8,30.06,North,0,0.0,0.0,18,0.00,CLR,FEW,0.00,WeatherDisplay:10.37,2013-03-04 20:51:00,
2013-03-04 15:56:00,53.2,10.8,30.06,North,0,0.0,0.0,18,0.00,CLR,FEW,0.00,WeatherDisplay:10.37,2013-03-04 20:56:00,
2013-03-04 16:01:00,53.4,10.9,30.06,North,0,0.0,0.0,18,0.00,CLR,FEW,0.00,WeatherDisplay:10.37,2013-03-04 21:01:00,
2013-03-04 16:06:00,53.4,10.9,30.06,North,0,0.0,0.0,18,0.00,CLR,FEW,0.00,WeatherDisplay:10.37,2013-03-04 21:06:00,
2013-03-04 16:11:00,53.2,10.8,30.06,North,0,0.0,0.0,18,0.00,CLR,FEW,0.00,WeatherDisplay:10.37,2013-03-04 21:11:00,
2013-03-04 16:16:00,53.1,10.6,30.03,North,0,0.0,0.0,18,0.00,CLR,FEW,0.00,WeatherDisplay:10.37,2013-03-04 21:16:00,
2013-03-04 16:21:00,53.1,10.6,30.03,North,0,0.0,0.0,18,0.00,CLR,FEW,0.00,WeatherDisplay:10.37,2013-03-04 21:21:00,
2013-03-04 16:26:00,53.2,10.8,30.03,North,0,0.0,0.0,18,0.00,CLR,FEW,0.00,WeatherDisplay:10.37,2013-03-04 21:26:00,
2013-03-04 16:31:00,53.2,10.8,30.03,North,0,0.0,0.0,18,0.00,CLR,FEW,0.00,WeatherDisplay:10.37,2013-03-04 21:31:00,
2013-03-04 16:36:00,53.1,10.6,30.03,North,0,0.0,0.0,18,0.00,CLR,FEW,0.00,WeatherDisplay:10.37,2013-03-04 21:36:00,
2013-03-04 16:41:00,53.1,10.6,30.03,North,0,0.0,0.0,18,0.00,CLR,FEW,0.00,WeatherDisplay:10.37,2013-03-04 21:41:00,
2013-03-04 16:46:00,53.1,10.6,30.06,North,0,0.0,0.0,18,0.00,CLR,FEW,0.00,WeatherDisplay:10.37,2013-03-04 21:46:00,
2013-03-04 16:51:00,53.1,10.6,30.06,North,0,0.0,0.0,18,0.00,CLR,FEW,0.00,WeatherDisplay:10.37,2013-03-04 21:51:00,
2013-03-04 16:56:00,53.1,10.6,30.06,North,0,0.0,0.0,18,0.00,CLR,FEW,0.00,WeatherDisplay:10.37,2013-03-04 21:56:00,
2013-03-04 17:01:00,53.1,10.6,30.06,North,0,0.0,0.0,18,0.00,CLR,FEW,0.00,WeatherDisplay:10.37,2013-03-04 22:01:00,
2013-03-04 17:06:00,53.1,10.6,30.06,North,0,0.0,0.0,18,0.00,CLR,FEW,0.00,WeatherDisplay:10.37,2013-03-04 22:06:00,
2013-03-04 17:11:00,52.9,10.5,30.06,North,0,0.0,0.0,18,0.00,CLR,FEW,0.00,WeatherDisplay:10.37,2013-03-04 22:11:00,
2013-03-04 17:16:00,52.7,10.3,30.06,North,0,0.0,0.0,18,0.00,CLR,FEW,0.00,WeatherDisplay:10.37,2013-03-04 22:16:00,
2013-03-04 17:21:00,52.7,10.3,30.06,North,0,0.0,0.0,18,0.00,CLR,FEW,0.00,WeatherDisplay:10.37,2013-03-04 22:21:00,
2013-03-04 17:26:00,52.5,10.2,30.06,North,0,0.0,0.0,18,0.00,CLR,FEW,0.00,WeatherDisplay:10.37,2013-03-04 22:26:00,
2013-03-04 17:31:00,52.3,10.0,30.06,North,0,0.0,0.0,18,0.00,CLR,FEW,0.00,WeatherDisplay:10.37,2013-03-04 22:31:00,
2013-03-04 17:36:00,52.3,10.0,30.06,North,0,0.0,0.0,18,0.00,CLR,FEW,0.00,WeatherDisplay:10.37,2013-03-04 22:36:00,
2013-03-04 17:41:00,52.2,9.9,30.06,North,0,0.0,0.0,18,0.00,CLR,FEW,0.00,WeatherDisplay:10.37,2013-03-04 22:41:00,
2013-03-04 17:46:00,52.0,9.7,30.06,North,0,0.0,0.0,18,0.00,CLR,FEW,0.00,WeatherDisplay:10.37,2013-03-04 22:46:00,
2013-03-04 17:51:00,51.6,10.6,30.06,North,0,0.0,0.0,19,0.00,CLR,FEW,0.00,WeatherDisplay:10.37,2013-03-04 22:51:00,
2013-03-04 17:56:00,51.4,10.5,30.06,North,0,0.0,0.0,19,0.00,CLR,FEW,0.00,WeatherDisplay:10.37,2013-03-04 22:56:00,
2013-03-04 18:01:00,51.1,10.2,30.06,North,0,0.0,0.0,19,0.00,CLR,FEW,0.00,WeatherDisplay:10.37,2013-03-04 23:01:00,
2013-03-04 18:06:00,50.7,9.9,30.06,North,0,0.0,0.0,19,0.00,CLR,FEW,0.00,WeatherDisplay:10.37,2013-03-04 23:06:00,
2013-03-04 18:11:00,50.4,9.6,30.06,North,0,0.0,0.0,19,0.00,CLR,FEW,0.00,WeatherDisplay:10.37,2013-03-04 23:11:00,
2013-03-04 18:16:00,49.8,9.1,30.06,North,0,0.0,0.0,19,0.00,CLR,FEW,0.00,WeatherDisplay:10.37,2013-03-04 23:16:00,
2013-03-04 18:21:00,49.5,8.8,30.06,North,0,0.0,0.0,19,0.00,CLR,FEW,0.00,WeatherDisplay:10.37,2013-03-04 23:21:00,
2013-03-04 18:26:00,48.9,8.4,30.06,North,0,0.0,0.0,19,0.00,CLR,FEW,0.00,WeatherDisplay:10.37,2013-03-04 23:26:00,
2013-03-04 18:31:00,48.6,8.1,30.06,North,0,0.0,0.0,19,0.00,CLR,FEW,0.00,WeatherDisplay:10.37,2013-03-04 23:31:00,
2013-03-04 18:36:00,47.7,7.3,30.06,North,0,0.0,0.0,19,0.00,CLR,FEW,0.00,WeatherDisplay:10.37,2013-03-04 23:36:00,
2013-03-04 18:41:00,47.1,6.9,30.06,North,0,0.0,0.0,19,0.00,CLR,FEW,0.00,WeatherDisplay:10.37,2013-03-04 23:41:00,
2013-03-04 18:46:00,46.6,6.4,30.06,North,0,0.0,0.0,19,0.00,CLR,FEW,0.00,WeatherDisplay:10.37,2013-03-04 23:46:00,
2013-03-04 18:51:00,45.9,9.1,30.06,North,0,0.0,0.0,22,0.00,CLR,FEW,0.00,WeatherDisplay:10.37,2013-03-04 23:51:00,
2013-03-04 18:56:00,45.3,8.6,30.06,North,0,0.0,0.0,22,0.00,CLR,FEW,0.00,WeatherDisplay:10.37,2013-03-04 23:56:00,
2013-03-04 19:01:00,44.8,11.0,30.09,North,0,0.0,0.0,25,0.00,CLR,FEW,0.00,WeatherDisplay:10.37,2013-03-05 00:01:00,
2013-03-04 19:06:00,44.6,12.6,30.09,North,0,0.0,0.0,27,0.00,CLR,FEW,0.00,WeatherDisplay:10.37,2013-03-05 00:06:00,
2013-03-04 19:11:00,44.1,13.0,30.09,North,0,0.0,0.0,28,0.00,CLR,FEW,0.00,WeatherDisplay:10.37,2013-03-05 00:11:00,
2013-03-04 19:16:00,43.5,12.5,30.09,North,0,0.0,0.0,28,0.00,CLR,FEW,0.00,WeatherDisplay:10.37,2013-03-05 00:16:00,
2013-03-04 19:21:00,43.2,12.2,30.09,North,0,0.0,0.0,28,0.00,CLR,FEW,0.00,WeatherDisplay:10.37,2013-03-05 00:21:00,
2013-03-04 19:26:00,43.0,12.8,30.09,North,0,0.0,0.0,29,0.00,CLR,FEW,0.00,WeatherDisplay:10.37,2013-03-05 00:26:00,
2013-03-04 19:31:00,42.8,13.5,30.09,North,0,0.0,0.0,30,0.00,CLR,FEW,0.00,WeatherDisplay:10.37,2013-03-05 00:31:00,
2013-03-04 19:36:00,42.6,14.0,30.09,North,0,0.0,0.0,31,0.00,CLR,FEW,0.00,WeatherDisplay:10.37,2013-03-05 00:36:00,
2013-03-04 19:41:00,42.4,13.1,30.09,North,0,0.0,0.0,30,0.00,CLR,FEW,0.00,WeatherDisplay:10.37,2013-03-05 00:41:00,
2013-03-04 19:46:00,41.9,12.7,30.09,North,0,0.0,0.0,30,0.00,CLR,FEW,0.00,WeatherDisplay:10.37,2013-03-05 00:46:00,
2013-03-04 19:51:00,41.7,13.3,30.09,North,0,0.0,0.0,31,0.00,CLR,FEW,0.00,WeatherDisplay:10.37,2013-03-05 00:51:00,
2013-03-04 19:56:00,41.5,14.5,30.09,North,0,0.0,0.0,33,0.00,CLR,FEW,0.00,WeatherDisplay:10.37,2013-03-05 00:56:00,
2013-03-04 20:01:00,41.4,16.4,30.09,North,0,0.0,0.0,36,0.00,CLR,FEW,0.00,WeatherDisplay:10.37,2013-03-05 01:01:00,
2013-03-04 20:06:00,41.4,16.4,30.09,North,0,0.0,0.0,36,0.00,CLR,FEW,0.00,WeatherDisplay:10.37,2013-03-05 01:06:00,
2013-03-04 20:11:00,41.2,16.2,30.09,North,0,0.0,0.0,36,0.00,CLR,FEW,0.00,WeatherDisplay:10.37,2013-03-05 01:11:00,
2013-03-04 20:16:00,41.2,15.6,30.09,North,0,0.0,0.0,35,0.00,CLR,FEW,0.00,WeatherDisplay:10.37,2013-03-05 01:16:00,
2013-03-04 20:21:00,41.0,15.4,30.09,North,0,0.0,0.0,35,0.00,CLR,FEW,0.00,WeatherDisplay:10.37,2013-03-05 01:21:00,
2013-03-04 20:26:00,40.6,15.7,30.09,North,0,0.0,0.0,36,0.00,CLR,FEW,0.00,WeatherDisplay:10.37,2013-03-05 01:26:00,
2013-03-04 20:31:00,40.5,16.2,30.09,North,0,0.0,0.0,37,0.00,CLR,FEW,0.00,WeatherDisplay:10.37,2013-03-05 01:31:00,
2013-03-04 20:36:00,40.3,16.0,30.09,North,0,0.0,0.0,37,0.00,CLR,FEW,0.00,WeatherDisplay:10.37,2013-03-05 01:36:00,
2013-03-04 20:41:00,40.3,15.4,30.09,North,0,0.0,0.0,36,0.00,CLR,FEW,0.00,WeatherDisplay:10.37,2013-03-05 01:41:00,
2013-03-04 20:46:00,40.1,15.2,30.09,North,0,0.0,0.0,36,0.00,CLR,FEW,0.00,WeatherDisplay:10.37,2013-03-05 01:46:00,
2013-03-04 20:52:00,40.3,15.4,30.09,North,0,0.0,0.0,36,0.00,CLR,FEW,0.00,WeatherDisplay:10.37,2013-03-05 01:52:00,
2013-03-04 20:57:00,40.1,15.2,30.09,North,0,0.0,0.0,36,0.00,CLR,FEW,0.00,WeatherDisplay:10.37,2013-03-05 01:57:00,
2013-03-04 21:02:00,39.7,14.9,30.12,North,0,0.0,0.0,36,0.00,CLR,FEW,0.00,WeatherDisplay:10.37,2013-03-05 02:02:00,
2013-03-04 21:07:00,39.7,14.9,30.12,North,0,0.0,0.0,36,0.00,CLR,FEW,0.00,WeatherDisplay:10.37,2013-03-05 02:07:00,
2013-03-04 21:12:00,39.4,15.8,30.12,North,0,0.0,0.0,38,0.00,CLR,FEW,0.00,WeatherDisplay:10.37,2013-03-05 02:12:00,
2013-03-04 21:17:00,39.4,15.2,30.12,North,0,0.0,0.0,37,0.00,CLR,FEW,0.00,WeatherDisplay:10.37,2013-03-05 02:17:00,
2013-03-04 21:22:00,39.4,15.8,30.12,North,0,0.0,0.0,38,0.00,CLR,FEW,0.00,WeatherDisplay:10.37,2013-03-05 02:22:00,
2013-03-04 21:27:00,39.2,15.7,30.12,North,0,0.0,0.0,38,0.00,CLR,FEW,0.00,WeatherDisplay:10.37,2013-03-05 02:27:00,
2013-03-04 21:32:00,39.6,16.6,30.12,North,0,0.0,0.0,39,0.00,CLR,FEW,0.00,WeatherDisplay:10.37,2013-03-05 02:32:00,
2013-03-04 21:37:00,39.9,16.3,30.12,North,0,0.0,0.0,38,0.00,CLR,FEW,0.00,WeatherDisplay:10.37,2013-03-05 02:37:00,
2013-03-04 21:42:00,40.5,16.2,30.12,North,0,0.0,0.0,37,0.00,CLR,FEW,0.00,WeatherDisplay:10.37,2013-03-05 02:42:00,
2013-03-04 21:47:00,40.8,15.2,30.12,North,0,0.0,0.0,35,0.00,CLR,FEW,0.00,WeatherDisplay:10.37,2013-03-05 02:47:00,
2013-03-04 21:52:00,41.0,14.7,30.12,North,0,0.0,0.0,34,0.00,CLR,FEW,0.00,WeatherDisplay:10.37,2013-03-05 02:52:00,
2013-03-04 21:57:00,41.0,14.7,30.12,North,0,0.0,0.0,34,0.00,CLR,FEW,0.00,WeatherDisplay:10.37,2013-03-05 02:57:00,
2013-03-04 22:02:00,41.0,14.7,30.12,North,0,0.0,0.0,34,0.00,CLR,FEW,0.00,WeatherDisplay:10.37,2013-03-05 03:02:00,
2013-03-04 22:07:00,41.0,14.7,30.12,North,0,0.0,0.0,34,0.00,CLR,FEW,0.00,WeatherDisplay:10.37,2013-03-05 03:07:00,
2013-03-04 22:12:00,41.0,14.7,30.12,North,0,0.0,0.0,34,0.00,CLR,FEW,0.00,WeatherDisplay:10.37,2013-03-05 03:12:00,
2013-03-04 22:17:00,40.6,15.1,30.12,North,0,0.0,0.0,35,0.00,CLR,FEW,0.00,WeatherDisplay:10.37,2013-03-05 03:17:00,
2013-03-04 22:22:00,40.5,14.9,30.12,North,0,0.0,0.0,35,0.00,CLR,FEW,0.00,WeatherDisplay:10.37,2013-03-05 03:22:00,
2013-03-04 22:27:00,40.1,15.2,30.12,North,0,0.0,0.0,36,0.00,CLR,FEW,0.00,WeatherDisplay:10.37,2013-03-05 03:27:00,
2013-03-04 22:32:00,40.1,16.5,30.12,North,0,0.0,0.0,38,0.00,CLR,FEW,0.00,WeatherDisplay:10.37,2013-03-05 03:32:00,
2013-03-04 22:37:00,40.1,16.5,30.12,North,0,0.0,0.0,38,0.00,CLR,FEW,0.00,WeatherDisplay:10.37,2013-03-05 03:37:00,
2013-03-04 22:42:00,40.1,17.1,30.12,North,0,0.0,0.0,39,0.00,CLR,FEW,0.00,WeatherDisplay:10.37,2013-03-05 03:42:00,
2013-03-04 22:47:00,40.1,17.1,30.12,North,0,0.0,0.0,39,0.00,CLR,FEW,0.00,WeatherDisplay:10.37,2013-03-05 03:47:00,
2013-03-04 22:52:00,39.9,16.9,30.12,North,0,0.0,0.0,39,0.00,CLR,FEW,0.00,WeatherDisplay:10.37,2013-03-05 03:52:00,
2013-03-04 22:57:00,39.9,16.9,30.12,North,0,0.0,0.0,39,0.00,CLR,FEW,0.00,WeatherDisplay:10.37,2013-03-05 03:57:00,
2013-03-04 23:02:00,39.7,16.8,30.12,North,0,0.0,0.0,39,0.00,CLR,FEW,0.00,WeatherDisplay:10.37,2013-03-05 04:02:00,
2013-03-04 23:07:00,39.7,17.4,30.12,North,0,0.0,0.0,40,0.00,CLR,FEW,0.00,WeatherDisplay:10.37,2013-03-05 04:07:00,
2013-03-04 23:12:00,39.9,17.5,30.12,North,0,0.0,0.0,40,0.00,CLR,FEW,0.00,WeatherDisplay:10.37,2013-03-05 04:12:00,
2013-03-04 23:17:00,39.9,18.1,30.09,North,0,0.0,0.0,41,0.00,CLR,FEW,0.00,WeatherDisplay:10.37,2013-03-05 04:17:00,
2013-03-04 23:22:00,39.9,18.1,30.09,North,0,0.0,0.0,41,0.00,CLR,FEW,0.00,WeatherDisplay:10.37,2013-03-05 04:22:00,
2013-03-04 23:27:00,39.9,18.7,30.09,North,0,0.0,0.0,42,0.00,CLR,FEW,0.00,WeatherDisplay:10.37,2013-03-05 04:27:00,
2013-03-04 23:32:00,39.9,18.7,30.09,North,0,0.0,0.0,42,0.00,CLR,FEW,0.00,WeatherDisplay:10.37,2013-03-05 04:32:00,
2013-03-04 23:37:00,39.7,18.5,30.09,North,0,0.0,0.0,42,0.00,CLR,FEW,0.00,WeatherDisplay:10.37,2013-03-05 04:37:00,
2013-03-04 23:42:00,39.7,18.5,30.09,North,0,0.0,0.0,42,0.00,CLR,FEW,0.00,WeatherDisplay:10.37,2013-03-05 04:42:00,
2013-03-04 23:47:00,39.4,18.7,30.09,North,0,0.0,0.0,43,0.00,CLR,FEW,0.00,WeatherDisplay:10.37,2013-03-05 04:47:00,
2013-03-04 23:52:00,39.4,19.3,30.09,North,0,0.0,0.0,44,0.00,CLR,FEW,0.00,WeatherDisplay:10.37,2013-03-05 04:52:00,
2013-03-04 23:57:00,39.6,19.4,30.09,North,0,0.0,0.0,44,0.00,CLR,FEW,0.00,WeatherDisplay:10.37,2013-03-05 04:57:00,